Location: Ambi�villers
(47.9752°N, 6.1612°E)
Time: 06:28:56
(UTC+00:00)

Daily predictions for brighter satellites

Satellite Brightness Start Highest point End
(mag) Time Altitude Azimuth Time Altitude Azimuth Time Altitude Azimuth
SL-14 R/B 3.9 20:15:48 10° SSE 20:19:32 39° E 20:23:17 10° NNE
ATLAS CENTAUR R/B 2.0 20:15:21 10° NW 20:19:39 59° WSW 20:24:10 10° SSE
Cosmos 1459 Rocket 4.0 20:15:13 10° N 20:21:18 85° E 20:27:24 10° S
Spot 2 Rocket 3.9 20:17:23 10° SE 20:22:16 51° ENE 20:27:12 10° N
Cosmos 1331 Rocket 4.2 20:18:09 10° SSW 20:23:25 84° WNW 20:28:46 10° NNE
Cosmos 1844 Rocket 3.5 20:20:08 10° NW 20:25:35 48° WSW 20:30:59 10° S
Cosmos 1626 2.1 20:22:31 10° S 20:26:11 73° E 20:29:53 10° NNE
IGS 5A 4.1 20:25:10 10° S 20:29:15 57° W 20:33:23 10° NNW
MetOp-B 4.2 20:25:49 10° SSE 20:31:11 84° WSW 20:36:35 10° NNW
FALCON 9 DEB 3.1 20:28:53 10° WSW 20:32:00 76° NNW 20:35:09 10° ENE
Cosmos 2278 Rocket 3.0 20:27:07 10° NNW 20:32:30 42° NE 20:37:52 10° SE
Cosmos 1802 Rocket 4.1 20:26:22 10° N 20:32:42 85° E 20:39:05 10° S
X-37B 2.3 20:32:39 10° SSW 20:34:42 16° SSE 20:36:46 10° ESE
Cosmos 2322 3.7 20:29:22 10° SSW 20:35:00 77° ESE 20:40:41 10° NNE
Cosmos 1953 3.3 20:32:09 10° NNW 20:36:04 46° W 20:39:56 10° SSW
Resurs 01 Rocket 2.6 20:34:33 10° S 20:38:47 45° W 20:43:03 10° NNW
COSMOS 2428 2.8 20:34:37 10° S 20:40:14 60° ESE 20:45:54 10° NE
FALCON 9 DEB 3.8 20:39:36 10° W 20:42:38 52° NNW 20:45:42 10° ENE
Cosmos 1943 Rocket 4.4 20:40:14 10° N 20:43:27 15° NE 20:46:40 10° ENE
Cosmos 1302 Rocket 4.0 20:41:56 10° SSW 20:47:12 82° ESE 20:52:27 10° NNE
Cosmos 1544 Rocket 4.1 20:43:41 10° NNW 20:48:05 60° W 20:52:25 10° S
BREEZE-M DEB (TANK) 2.6 20:47:05 10° WSW 20:49:35 77° SSE 20:55:11 10° ENE
CZ-2C R/B 3.9 20:46:00 10° NNE 20:50:49 84° WNW 20:55:33 10° SSW
ATLAS CENTAUR R/B 4.1 20:49:29 12° SE 20:52:19 18° E 20:57:40 10° ENE
SPOT 1/Viking Rocket 3.9 20:48:28 10° S 20:53:34 64° WSW 20:58:42 10° NNW
FALCON 9 DEB 4.0 20:51:19 10° W 20:54:21 48° NNW 20:57:23 10° ENE
FALCON 9 DEB 3.7 20:51:48 10° W 20:54:52 53° NNW 20:57:56 10° ENE
BREEZE-M DEB (TANK) 1.7 20:54:53 10° SW 20:57:18 58° SSE 21:01:53 10° ENE
Cosmos 2233 Rocket 4.0 21:02:17 10° N 21:08:28 76° E 21:14:02 13° SSE
Cosmos 2123 Rocket 4.2 21:02:38 10° SSW 21:08:57 79° W 21:15:20 10° N
Cosmos 1025 Rocket 4.3 21:04:55 10° SSW 21:09:04 42° WNW 21:13:13 10° N
Cosmos 968 Rocket 3.7 21:04:11 10° NNW 21:09:17 69° WSW 21:13:46 13° S
Cosmos 1980 4.1 21:05:46 10° S 21:11:05 43° ESE 21:16:26 10° NE
Cosmos 2228 3.3 21:06:56 10° N 21:11:18 58° ENE 21:14:34 17° SSE
ARIANE 5 R/B 3.0 21:10:26 11° S 21:14:37 63° W 21:19:06 10° NNW
Cosmos 1607 4.1 21:09:27 10° NW 21:15:55 80° NE 21:21:07 16° SE
Terra 1.9 21:12:09 16° SSE 21:15:59 73° ENE 21:20:45 10° N
Cosmos 389 Rocket 2.5 21:12:48 10° N 21:16:14 64° ENE 21:18:28 20° SSE
H-2A R/B 4.0 21:13:31 10° NNE 21:17:24 40° E 21:20:02 18° SSE
Cosmos 2219 Rocket 2.7 21:11:51 10° SW 21:17:30 64° WNW 21:23:09 10° NNE
Cosmos 1536 Rocket 4.3 21:19:37 10° SSW 21:23:59 54° WNW 21:28:21 10° N
Cosmos 1346 Rocket 2.8 21:22:34 14° S 21:25:54 73° E 21:29:57 10° NNE
ATLAS 3B R/B 3.3 21:19:36 10° WSW 21:26:05 59° NW 21:32:50 10° NE
Cosmos 1992 Rocket 3.9 21:22:02 10° SSW 21:27:15 78° ESE 21:32:30 10° NNE
Cosmos 1486 Rocket 4.3 21:23:38 10° NNW 21:28:47 63° WSW 21:32:48 17° S
Cosmos 2333 Rocket 3.4 21:26:12 10° SW 21:31:42 45° NW 21:37:12 10° NNE
Cosmos 1867 4.3 21:27:55 10° NW 21:33:07 44° WSW 21:37:01 17° S
NOSS 3-1 (C) 4.4 21:32:57 18° SE 21:34:43 21° ESE 21:39:00 10° ENE
Cosmos 1455 2.5 21:33:43 10° N 21:37:28 53° ENE 21:39:27 25° SE
Cosmos 1184 Rocket 3.6 21:36:38 26° SE 21:37:42 33° E 21:40:41 10° NNE
SPOT 5 3.5 21:34:14 14° S 21:38:26 52° W 21:43:06 10° NNW
SL-4 R/B 1.9 21:34:17 10° WSW 21:38:29 87° SSE 21:42:22 10° ENE
Cosmos 2237 Rocket 2.1 21:37:35 10° SSW 21:43:10 70° ESE 21:48:46 10° NNE
SL-16 R/B 3.3 21:41:05 20° SE 21:43:33 27° ESE 21:48:13 10° NE
Cosmos 1354 Rocket 4.0 21:42:17 10° NNW 21:47:40 85° WSW 21:51:08 22° SSE
ERS-1 Rocket 3.8 21:43:45 13° SSW 21:47:56 43° W 21:52:45 10° NNW
Cosmos 2369 Rocket 4.1 21:45:02 10° N 21:49:33 23° NE 21:54:01 10° E
Lacrosse 5 rocket 3.7 21:47:59 10° WNW 21:50:53 22° NNW 21:53:45 10° NE
USA 215 4.2 21:48:54 10° ENE 21:54:13 26° SE 21:56:37 21° SSE
Meteor 2-1 Rocket 4.3 21:53:25 10° N 21:58:57 68° ENE 22:02:24 24° SSE
Meteor 1-4 Rocket 3.7 21:58:06 10° N 22:01:12 30° ENE 22:02:27 23° ESE
Cosmos 1464 Rocket 4.1 21:56:21 10° N 22:02:45 74° E 22:06:55 23° SSE
Meteor 2-10 Rocket 4.5 22:03:23 10° NNW 22:08:02 38° W 22:11:41 15° SSW
X-37B 1.3 22:07:50 10° WSW 22:10:09 34° SSW 22:10:09 34° SSW
NOSS 0 Rocket 4.4 22:05:04 10° SW 22:11:13 64° WNW 22:17:27 10° NNE
Cosmos 724 4.4 22:05:11 10° NW 22:11:24 85° NE 22:15:20 23° SE
Cosmos 1726 Rocket 4.2 22:09:12 10° NNW 22:13:32 51° W 22:16:06 22° SSW
Cosmos 2278 Rocket 3.2 22:11:22 10° NW 22:16:32 37° WSW 22:19:57 19° SSW
SJ 16-02 1.9 22:17:26 10° NNW 22:21:42 49° ENE 22:23:51 26° SE
Cosmos 2058 Rocket 3.2 22:17:47 10° NNW 22:22:12 67° W 22:24:20 29° S
Cosmos 2297 3.8 22:17:11 10° NNW 22:22:51 71° ENE 22:26:13 25° SE
Okean 1-7 Rocket 3.5 22:20:45 30° S 22:22:57 80° E 22:27:23 10° NNE
Spot 4 3.9 22:22:20 29° SSE 22:24:45 73° ENE 22:29:31 10° N
NOSS 2-3 (D) 4.3 22:26:26 30° SE 22:27:02 31° ESE 22:31:09 10° NE
Cosmos 1943 Rocket 2.4 22:22:51 10° NNW 22:28:21 63° ENE 22:31:41 24° SE
USA 267 4.0 22:23:01 10° E 22:29:20 54° NNE 22:35:41 10° NW
OPS 6432 4.3 22:29:50 10° NW 22:32:50 71° NE 22:33:53 40° ESE
FALCON 9 DEB 4.2 22:34:27 10° WNW 22:37:46 45° NNE 22:41:03 10° E
Cosmos 2034 Rocket 4.0 22:34:43 10° N 22:40:55 83° W 22:44:25 28° S
Cosmos 1892 4.4 22:42:46 19° ESE 22:43:35 20° E 22:46:28 10° NE
NOSS 2-3 (C) 3.9 22:42:31 37° SSE 22:43:36 46° ESE 22:48:09 10° NE
Cosmos 1441 Rocket 3.9 22:45:54 26° SW 22:47:44 49° WNW 22:51:26 10° N
GP-B 3.8 22:47:36 10° NNE 22:51:50 41° E 22:53:25 30° SE
USA 32 4.1 22:47:50 10° N 22:53:06 74° E 22:55:33 32° SSE
Cosmos 1943 4.5 22:51:58 21° SE 22:53:38 24° ESE 22:58:03 10° NE
Terra 4.1 22:51:34 10° WSW 22:54:16 15° W 22:57:00 10° NW
Cosmos 1174 4.4 22:52:33 17° SW 22:56:59 84° NW 23:01:32 10° NE
Meteor 1-11 4.2 22:55:26 31° S 22:58:09 70° E 23:03:43 10° NNE
Cosmos 1825 4.3 22:58:41 14° E 22:59:31 14° E 23:01:37 10° NE
NOSS 8 (F) 4.4 23:00:20 51° ESE 23:00:20 51° ESE 23:03:03 10° NE
Meteor 1-27 4.5 22:55:47 10° N 23:01:18 61° ENE 23:04:11 28° SE
ALOS 2 2.5 23:00:30 39° S 23:02:08 85° WSW 23:06:34 10° NNW
Cosmos 1626 Rocket 3.8 23:01:37 31° SSW 23:03:37 65° W 23:08:01 10° N
GEOS 3 Rocket 3.6 23:04:53 28° SE 23:07:49 81° SW 23:13:11 10° NW
Cosmos-2242 3.2 23:04:42 10° N 23:09:05 66° ENE 23:10:41 37° SSE
Thor Agena Rocket 4.1 23:07:54 10° NNE 23:12:54 43° E 23:14:52 30° SSE
Cosmos 1602 Rocket 3.7 23:11:17 35° SSW 23:13:07 72° W 23:17:36 10° N
Cosmos 1869 3.9 23:10:44 10° N 23:14:44 50° ENE 23:16:05 34° SE
Tsikada Rocket 4.0 23:12:01 27° SSW 23:15:33 76° W 23:21:45 10° N
Aureole 3 3.7 23:12:17 10° N 23:16:28 87° W 23:18:31 36° S
USA 229 DEB 3.6 23:14:17 26° SSW 23:18:08 70° SE 23:24:57 10° NE
USA 229 3.6 23:14:25 26° SSW 23:18:14 69° SE 23:25:03 10° NE
SL-4 R/B 2.8 23:14:25 10° W 23:18:17 48° N 23:21:54 10° ENE
USA 308 4.3 23:21:41 24° ESE 23:21:41 24° ESE 23:24:27 10° ENE
Cosmos 990 Rocket 4.0 23:16:04 10° NNW 23:21:16 79° ENE 23:23:44 32° SSE
Cosmos 1758 Rocket 3.5 23:19:58 41° S 23:21:30 86° E 23:25:55 10° N
NOSS 3-1 (C) 3.4 23:20:17 16° SW 23:24:38 75° NW 23:31:05 10° NE
ATLAS CENTAUR R/B 3.9 23:20:36 10° WSW 23:26:03 76° NNW 23:41:06 10° ENE
SL-16 R/B 2.7 23:22:55 16° SW 23:27:19 56° WNW 23:32:54 10° NNE
Cosmos 2237 Rocket 4.2 23:23:09 10° W 23:27:45 25° NW 23:32:23 10° N
NOSS 8 (H) 4.3 23:28:00 55° ESE 23:28:00 55° ESE 23:30:40 10° NE
SAR-Lupe-2 3.5 23:24:18 10° NNE 23:27:55 81° ESE 23:28:37 55° S
Cosmos 405 Rocket 3.5 23:30:09 33° ESE 23:30:47 36° E 23:34:12 10° NNE
Lacrosse 5 rocket 3.7 23:28:05 10° NW 23:30:55 21° N 23:33:45 10° ENE
ATLAS 5 CENTAUR R/B 3.2 23:32:09 17° ESE 23:32:09 17° ESE 23:34:48 10° ENE
Cosmos 2369 Rocket 2.2 23:28:31 10° NNW 23:34:16 81° WSW 23:37:04 32° SSE
Meteor 1-4 Rocket 4.4 23:33:35 10° NW 23:35:58 18° W 23:36:35 17° WSW
NOSS 2-3 (E) 3.9 23:33:37 23° WSW 23:36:10 66° NW 23:41:08 10° NE
USA 305 3.6 23:36:25 34° SE 23:36:25 34° SE 23:40:12 10° ENE
Cosmos 1356 3.3 23:36:44 59° SE 23:37:07 66° E 23:40:31 10° NNE
USA 215 3.2 23:31:18 10° NE 23:37:53 81° SE 23:43:55 13° SW
NOSS 3-1 (A) 3.2 23:34:44 27° SW 23:37:54 84° SE 23:44:17 10° NE
Cosmos 2221 3.8 23:34:50 10° N 23:38:43 32° ENE 23:40:49 21° ESE
Resurs 1-4 Rocket 4.4 23:39:14 10° ENE 23:41:25 12° E 23:43:36 10° ESE
Cosmos 1937 Rocket 3.7 23:36:17 10° NNW 23:41:37 69° ENE 23:44:34 27° SE
SL-16 R/B 4.5 23:37:39 10° ESE 23:42:18 23° NE 23:46:56 10° N
FALCON 9 DEB 4.2 23:41:12 10° WNW 23:44:13 41° NNE 23:47:12 10° E
Cosmos 1898 Rocket 3.4 23:42:22 10° NNW 23:47:37 80° WSW 23:49:54 34° SSE
Cosmos 2279 Rocket 3.9 23:42:35 10° N 23:48:52 85° W 23:52:06 31° S
Meteor 2-13 Rocket 4.5 23:46:37 31° S 23:49:44 74° E 23:55:53 10° NNE
Lacrosse 4 Rocket 2.4 23:49:58 10° NNW 23:53:53 41° NE 23:56:49 16° ESE
FALCON 9 DEB 3.6 23:51:36 10° WNW 23:54:39 53° NNE 23:57:34 11° E
Cosmos 1242 Rocket 3.9 23:51:44 10° N 23:55:03 33° ENE 23:56:31 23° ESE
